Location: Unspecified
(0.0000°N, 0.0000°E)
Time: 02:29:14
(UTC+00:00)

Tiros 1 - Pass Details

Date: 20 April 2026
Orbit: 618 x 648 km, 48.4° (Epoch: 15 May)

Event Time Altitude Azimuth Distance (km) Brightness Sun altitude
Rises 05:15:55 0° 201° (SSW) 2,896 10.2 -10.6°
Reaches altitude 10° 05:18:29 10° 189° (S) 1,984 9.5 -9.9°
Maximum altitude 05:22:25 28° 129° (SE) 1,157 8.9 -9.0°
Drops below altitude 10° 05:26:18 10° 70° (ENE) 1,970 11.3 -8.0°
Sets 05:28:50 0° 58° (ENE) 2,872 12.1 -7.4°
